Tracking 28052 objects as of 22-Sep-2023
HD Live streaming from Space Station
objects crossing your sky now

ARIANE 42P DEB

Track ARIANE 42P DEB now!
10-day predictions


NORAD ID: 44510
Int'l Code: 1992-052H
Perigee: 1,309.7 km
Apogee: 1,398.0 km
Inclination: 66.1 °
Period: 112.6 minutes
Semi major axis: 7724 km
RCS: Unknown
Launch date: August 10, 1992
Source: France (FR)
Launch site: FRENCH GUIANA (FRGUI)

Note: This is SATELLITE DEBRIS
Your satellite tracking list
Your tracking list is empty




NASA's NSSDC Master Catalog

Two Line Element Set (TLE):
1 44510U 92052H   23265.11279714  .00001949  00000-0  89267-2 0  9999
2 44510  66.0585 211.0531 0057108  37.2171 323.2780 12.78696574191664
Source of the keplerian elements: AFSPC